FW9535 Weather Reports


time (UTC)temp
C
wind
direction
speed
KPH
gust
KPH
rain 1hr
cm
rain 24hr
cm
rain mn
cm
humidity
%
barometer
mb
20260510002217 19 260 3.2 3.2 0.00 0.00 0.00 68 1028.0
20260510000713 19 260 3.2 3.2 0.00 0.00 0.00 68 1028.0
20260509235209 19 275 3.2 3.2 0.00 0.00 0.00 68 1027.9
20260509233707 18 205 4.8 4.8 0.00 0.00 0.00 71 1027.9
20260509232203 17 265 1.6 3.2 0.00 0.00 0.00 73 1028.0
20260509230700 16 193 3.2 3.2 0.00 0.00 0.00 76 1027.9
20260509225200 15 239 3.2 4.8 0.00 0.00 0.00 78 1028.0
20260509223656 15 260 3.2 3.2 0.00 0.00 0.00 80 1028.0
20260509222151 13 222 1.6 3.2 0.00 0.00 0.00 86 1027.8
20260509220651 12 206 4.8 4.8 0.00 0.00 0.00 86 1027.9
20260509215146 12 194 3.2 4.8 0.00 0.00 0.00 87 1027.5
20260509213643 11 196 3.2 3.2 0.00 0.00 0.00 89 1027.7
20260509212138 10 222 1.6 1.6 0.00 0.00 0.00 91 1027.2
20260509210634 10 223 1.6 1.6 0.00 0.00 0.00 92 1027.1
20260509205132 10 222 3.2 3.2 0.00 0.00 0.00 92 1026.9
20260509203632 10 229 1.6 1.6 0.00 0.00 0.00 91 1026.7
20260509202132 10 216 3.2 3.2 0.00 0.00 0.00 92 1026.5
20260509200632 10 238 3.2 3.2 0.00 0.00 0.00 92 1026.4
20260509195131 10 209 1.6 1.6 0.00 0.00 0.00 91 1026.4
20260509193629 10 222 0.0 0.0 0.00 0.00 0.00 92 1025.9
20260509192129 10 270 0.0 0.0 0.00 0.00 0.00 91 1025.8
20260509190628 10 239 1.6 1.6 0.00 0.00 0.00 91 1025.7
20260509185125 10 206 3.2 3.2 0.00 0.00 0.00 91 1025.5
20260509183622 10 212 1.6 3.2 0.00 0.00 0.00 91 1025.1
20260509182116 10 278 0.0 0.0 0.00 0.00 0.00 92 1025.1
20260509180614 9 197 3.2 3.2 0.00 0.00 0.00 93 1024.9
20260509175108 10 191 4.8 4.8 0.00 0.00 0.00 92 1024.8
20260509173607 10 230 1.6 1.6 0.00 0.00 0.00 93 1024.6
20260509172102 10 207 3.2 3.2 0.00 0.00 0.00 92 1024.9
20260509170556 10 219 3.2 3.2 0.00 0.00 0.00 90 1025.0
20260509165052 10 220 1.6 3.2 0.00 0.00 0.00 90 1024.7
20260509163548 11 247 3.2 3.2 0.00 0.00 0.00 90 1024.9
20260509162047 10 248 0.0 0.0 0.00 0.00 0.00 90 1024.9
20260509160546 10 256 0.0 0.0 0.00 0.00 0.00 91 1024.9
20260509155046 10 232 0.0 0.0 0.00 0.00 0.00 91 1025.0
20260509153543 10 277 1.6 3.2 0.00 0.00 0.00 91 1025.0
20260509152039 10 228 0.0 1.6 0.00 0.00 0.00 90 1025.0
20260509150536 10 267 0.0 0.0 0.00 0.00 0.00 90 1024.9
20260509145036 10 270 0.0 0.0 0.00 0.00 0.00 90 1025.3
20260509143534 11 288 0.0 0.0 0.00 0.00 0.00 90 1025.2
20260509142035 11 274 0.0 1.6 0.00 0.00 0.00 89 1025.3
20260509140530 11 220 1.6 1.6 0.00 0.00 0.00 89 1025.3
20260509135029 11 257 1.6 1.6 0.00 0.00 0.00 88 1025.0
20260509133525 11 244 0.0 0.0 0.00 0.00 0.00 88 1025.1
20260509132026 11 273 0.0 0.0 0.00 0.00 0.00 88 1025.2
20260509130525 11 281 1.6 1.6 0.00 0.00 0.00 88 1025.3
20260509125021 11 241 0.0 0.0 0.00 0.00 0.00 88 1025.1
20260509123519 11 274 1.6 1.6 0.00 0.00 0.00 88 1025.3
20260509122015 11 266 1.6 3.2 0.00 0.00 0.00 87 1025.2
20260509120513 11 228 1.6 3.2 0.00 0.00 0.00 87 1025.4
20260509115011 11 238 0.0 0.0 0.00 0.00 0.00 87 1025.5
20260509113511 11 293 0.0 0.0 0.00 0.00 0.00 87 1025.3
20260509112008 11 240 0.0 0.0 0.00 0.00 0.00 88 1025.5
20260509110504 11 272 0.0 0.0 0.00 0.00 0.00 88 1025.3
20260509105003 11 266 0.0 0.0 0.00 0.00 0.00 88 1025.3
20260509103500 11 243 0.0 0.0 0.00 0.00 0.00 89 1025.1
20260509101957 11 236 0.0 0.0 0.00 0.00 0.00 89 1024.9
20260509100454 11 286 0.0 0.0 0.00 0.00 0.00 90 1025.0
20260509094950 11 272 1.6 1.6 0.00 0.00 0.00 89 1024.9
20260509093448 12 278 0.0 0.0 0.00 0.00 0.00 89 1024.6
20260509091947 12 238 3.2 3.2 0.00 0.00 0.00 89 1024.5
20260509090444 12 217 3.2 3.2 0.00 0.00 0.00 88 1024.5
20260509084940 12 273 0.0 0.0 0.00 0.00 0.00 87 1024.4
20260509083438 12 296 0.0 0.0 0.00 0.00 0.00 86 1024.4
20260509081934 13 288 0.0 0.0 0.00 0.00 0.00 85 1023.9
20260509080433 13 285 0.0 0.0 0.00 0.00 0.00 84 1023.9
20260509074931 13 286 0.0 0.0 0.00 0.00 0.00 81 1023.6
20260509073427 14 279 0.0 0.0 0.00 0.00 0.00 79 1023.3
20260509071922 15 283 0.0 0.0 0.00 0.00 0.00 77 1023.0
20260509070419 16 291 0.0 0.0 0.00 0.00 0.00 75 1023.0
20260509064919 17 287 0.0 1.6 0.00 0.00 0.00 71 1022.7
20260509063415 18 208 1.6 3.2 0.00 0.00 0.00 67 1022.8
20260509061913 18 306 0.0 0.0 0.00 0.00 0.00 64 1022.6
20260509060410 19 7 3.2 3.2 0.00 0.00 0.00 65 1022.6
20260509054910 20 292 0.0 0.0 0.00 0.00 0.00 61 1022.6
20260509053408 20 309 0.0 1.6 0.00 0.00 0.00 62 1022.6
20260509051906 20 304 0.0 0.0 0.00 0.00 0.00 57 1022.2
20260509050403 20 214 6.4 11.3 0.00 0.00 0.00 54 1022.2
20260509044900 21 173 4.8 4.8 0.00 0.00 0.00 55 1022.1
20260509043356 21 6 1.6 1.6 0.00 0.00 0.00 56 1022.3
20260509041851 21 284 1.6 3.2 0.00 0.00 0.00 57 1022.1
20260509040350 21 200 3.2 4.8 0.00 0.00 0.00 56 1022.2
20260509034845 21 238 0.0 1.6 0.00 0.00 0.00 56 1022.1
20260509033343 21 237 4.8 4.8 0.00 0.00 0.00 57 1022.3
20260509031841 21 282 1.6 1.6 0.00 0.00 0.00 55 1022.2
20260509030339 22 257 3.2 3.2 0.00 0.00 0.00 50 1022.5
20260509024839 22 304 0.0 1.6 0.00 0.00 0.00 49 1022.5
20260509023336 22 245 4.8 8.0 0.00 0.00 0.00 50 1022.7
20260509021832 21 233 4.8 8.0 0.00 0.00 0.00 50 1023.2
20260509020331 21 263 4.8 8.0 0.00 0.00 0.00 52 1023.1
20260509014828 21 185 3.2 3.2 0.00 0.00 0.00 53 1023.3
20260509013324 21 174 4.8 4.8 0.00 0.00 0.00 53 1023.6
20260509011820 20 250 3.2 3.2 0.00 0.00 0.00 55 1023.7